Location: Gerlach
(40.6516°N, 119.3568°W)
Time: 07:12:08
(UTC-08:00)

Tiros 1 - All Passes

Search period start: 27 January 2023 00:00
Search period end: 06 February 2023 00:00
Orbit: 628 x 662 km, 48.4° (Epoch: 26 January)

Date Brightness Start Highest point End Pass type
(mag) Time Alt. Az. Time Alt. Az. Time Alt. Az.
27 Jan - 01:11:22 10° SSE 01:13:54 15° SE 01:16:29 10° E night (unlit)
27 Jan - 02:50:49 10° SW 02:55:26 75° SSE 03:00:08 10° ENE visible
27 Jan - 04:33:31 10° W 04:37:53 38° NNW 04:42:18 10° NE visible
27 Jan - 06:16:37 10° WNW 06:20:52 33° N 06:25:09 10° ENE visible
27 Jan - 07:58:53 10° WNW 08:03:36 67° NNE 08:08:21 10° ESE daylight
27 Jan - 09:41:25 10° WNW 09:45:32 29° SW 09:49:39 10° SSE daylight
28 Jan - 01:34:49 10° SSW 01:38:56 32° SE 01:43:05 10° ENE night (unlit)
28 Jan - 03:16:18 10° WSW 03:20:54 61° NNW 03:25:33 10° ENE visible
28 Jan - 04:59:28 10° WNW 05:03:41 32° N 05:07:56 10° ENE visible
28 Jan - 06:42:10 10° NW 06:46:38 41° NNE 06:51:08 10° E visible
28 Jan - 08:24:20 10° WNW 08:29:01 68° SW 08:33:46 10° SE daylight
28 Jan - 10:08:18 10° WSW 10:10:32 13° SW 10:12:47 10° SSW daylight
29 Jan - 00:20:35 10° SSE 00:22:41 13° SE 00:24:48 10° ESE night (unlit)
29 Jan - 01:59:34 10° SW 02:04:09 69° SE 02:08:48 10° ENE night (unlit)
29 Jan - 03:42:10 10° W 03:46:33 40° NNW 03:50:59 10° NE visible
29 Jan - 05:25:17 10° WNW 05:29:31 32° N 05:33:46 10° ENE visible
29 Jan - 07:07:35 10° WNW 07:12:16 62° NNE 07:16:59 10° ESE daylight
29 Jan - 08:50:02 10° WNW 08:54:16 32° SW 08:58:30 10° SSE daylight
30 Jan - 00:43:42 10° SSW 00:47:40 29° SE 00:51:41 10° ENE night (unlit)
30 Jan - 02:25:00 10° WSW 02:29:35 65° NNW 02:34:15 10° ENE night (unlit)
30 Jan - 04:08:07 10° WNW 04:12:19 32° N 04:16:34 10° ENE visible
30 Jan - 05:50:53 10° NW 05:55:17 39° NNE 05:59:44 10° E visible
30 Jan - 07:33:01 10° WNW 07:37:44 74° SSW 07:42:28 10° SE daylight
30 Jan - 09:16:38 10° W 09:19:18 15° SW 09:21:56 10° SSW daylight
30 Jan - 23:29:58 10° SSE 23:31:27 11° SE 23:32:56 10° ESE night (unlit)
31 Jan - 01:08:19 10° SW 01:12:52 62° SE 01:17:28 10° ENE night (unlit)
31 Jan - 02:50:48 10° W 02:55:13 42° NNW 02:59:39 10° NE visible
31 Jan - 04:33:57 10° WNW 04:38:09 32° N 04:42:22 10° ENE visible
31 Jan - 06:16:18 10° NW 06:20:56 58° NNE 06:25:37 10° ESE visible
31 Jan - 07:58:40 10° WNW 08:02:59 36° SW 08:07:19 10° SSE daylight
31 Jan - 23:52:35 10° SSW 23:56:25 26° SE 00:00:16 10° E night (unlit)
01 Feb - 01:33:40 10° WSW 01:38:15 70° NNW 01:42:55 10° ENE night (unlit)
01 Feb - 03:16:45 10° WNW 03:20:57 33° N 03:25:12 10° ENE visible
01 Feb - 04:59:34 10° NW 05:03:55 37° NNE 05:08:20 10° E visible
01 Feb - 06:41:42 10° WNW 06:46:25 80° SSW 06:51:10 10° SE daylight
01 Feb - 08:25:04 10° W 08:28:02 17° SW 08:31:00 10° S daylight
02 Feb - 00:17:04 10° SW 00:21:34 57° SE 00:26:07 10° ENE night (unlit)
02 Feb - 01:59:25 10° W 02:03:51 43° NNW 02:08:19 10° NE night (unlit)
02 Feb - 03:42:36 10° WNW 03:46:46 31° N 03:50:58 10° ENE visible
02 Feb - 05:25:00 10° NW 05:29:36 54° NNE 05:34:14 10° E visible
02 Feb - 07:07:18 10° WNW 07:11:41 39° SW 07:16:06 10° SSE daylight
02 Feb - 23:01:29 10° S 23:05:09 24° SE 23:08:50 10° E night (unlit)
03 Feb - 00:42:20 10° WSW 00:46:56 75° NNW 00:51:36 10° ENE night (unlit)
03 Feb - 02:25:22 10° WNW 02:29:35 33° N 02:33:50 10° ENE night (unlit)
03 Feb - 04:08:14 10° NW 04:12:33 36° NNE 04:16:54 10° E visible
03 Feb - 05:50:23 10° WNW 05:55:05 87° SW 05:59:50 10° ESE visible
03 Feb - 07:33:32 10° W 07:36:45 18° SW 07:40:00 10° S daylight
03 Feb - 23:25:49 10° SW 23:30:16 51° SE 23:34:46 10° ENE night (unlit)
04 Feb - 01:08:03 10° W 01:12:29 46° NNW 01:16:59 10° NE night (unlit)
04 Feb - 02:51:15 10° WNW 02:55:23 31° N 02:59:34 10° ENE visible
04 Feb - 04:33:41 10° NW 04:38:14 51° NNE 04:42:50 10° E visible
04 Feb - 06:15:56 10° WNW 06:20:23 43° SW 06:24:51 10° SSE visible
04 Feb - 22:10:23 10° S 22:13:52 21° SE 22:17:22 10° E night (unlit)
04 Feb - 23:51:00 10° WSW 23:55:36 81° NNW 00:00:15 10° ENE night (unlit)
05 Feb - 01:33:59 10° WNW 01:38:12 34° N 01:42:27 10° NE night (unlit)
05 Feb - 03:16:54 10° NW 03:21:11 35° N 03:25:29 10° ENE visible
05 Feb - 04:59:03 10° WNW 05:03:45 87° NNE 05:08:28 10° ESE visible
05 Feb - 06:42:01 10° W 06:45:28 20° SW 06:48:56 10° S daylight
05 Feb - 22:34:34 10° SW 22:38:57 46° SE 22:43:23 10° ENE night (unlit)
